GFSSGP_250_spd_342.txt.gz
Wind_Speed
11 15 6 23 10 21 29 34 41 43 44 39 27 11 12 8 18 10 5 13 14 17 16 16 15 17 17 21 19 18 14 11 16 18 18 15 13 10 9 9 12 14 18 19 15 14 18 19 21
10 9 23 24 21 21 25 33 42 45 47 43 32 16 7 19 14 19 12 18 25 27 22 23 20 21 23 24 14 15 14 13 21 22 16 13 9 8 11 12 18 19 21 22 20 12 16 19 20
11 16 22 23 22 21 25 33 40 47 50 48 43 29 19 14 13 19 22 23 26 25 22 24 20 23 23 18 15 16 16 21 21 22 16 11 9 9 12 13 19 18 19 20 19 21 14 18 20
14 21 14 19 24 30 32 34 37 45 52 52 45 42 32 28 28 26 24 24 25 28 24 24 24 22 19 15 16 15 21 21 24 21 14 13 10 9 18 18 19 20 20 24 23 16 15 14 20
17 19 17 24 25 27 30 31 34 42 48 52 49 42 37 32 28 27 24 23 26 29 25 25 22 19 18 17 14 20 21 24 24 16 12 8 7 8 11 13 17 18 23 26 22 17 15 16 19
17 17 21 21 22 25 26 30 34 38 43 48 51 45 41 37 33 28 24 26 28 28 25 24 21 18 17 18 20 21 23 24 18 13 9 7 6 8 8 11 16 17 21 25 30 25 17 15 20
23 19 17 17 19 23 26 30 33 37 41 44 47 47 42 40 38 35 31 28 27 27 25 25 23 23 23 20 19 22 24 20 16 13 11 11 10 9 11 14 16 18 19 22 31 32 19 11 19
7 18 12 11 14 22 27 30 33 35 38 37 40 42 41 39 38 38 37 34 32 31 31 30 28 25 22 22 21 22 19 15 12 11 11 13 11 11 14 12 12 14 17 22 29 34 28 21 24
17 9 8 6 12 17 21 26 29 32 33 36 34 36 38 37 35 37 36 33 32 31 29 27 26 25 24 24 24 22 18 15 13 12 10 9 8 13 16 15 12 14 15 21 25 30 22 33 32
9 9 6 9 11 13 19 22 25 28 28 28 32 31 30 31 31 29 32 32 31 32 31 30 27 26 23 20 18 16 15 12 10 9 7 5 5 11 16 13 13 15 16 16 21 29 27 19 29
8 5 8 7 8 9 15 20 22 23 26 26 25 26 26 23 24 23 24 27 26 24 24 23 23 19 16 14 12 11 8 5 4 4 4 5 5 6 9 8 12 10 13 15 21 21 20 19 15
6 7 5 7 8 10 13 15 19 19 22 22 23 21 20 21 17 16 15 17 18 19 17 14 12 11 13 12 10 7 5 3 2 4 4 3 5 8 7 8 11 12 14 14 14 15 15 21 22
1 5 6 8 11 13 14 15 16 17 18 20 18 19 17 13 14 13 9 7 5 8 8 8 5 3 2 7 10 9 6 7 5 5 7 6 7 7 6 7 8 7 10 11 10 9 11 11 18
6 8 11 13 14 14 16 17 17 14 15 16 18 14 15 12 9 8 8 8 6 5 5 2 2 3 2 3 5 6 9 6 5 5 6 7 8 6 6 8 8 6 3 2 7 6 8 7 7
10 9 9 7 9 15 14 13 14 10 15 17 15 15 12 13 9 8 6 3 4 7 5 8 10 8 7 7 5 4 1 2 4 3 2 2 3 6 6 5 6 7 6 4 2 2 3 2 1
4 6 5 4 13 14 14 14 11 18 19 20 18 16 14 13 13 12 8 8 6 9 8 11 11 10 10 11 10 10 9 7 6 4 7 9 8 5 5 6 6 9 4 1 2 4 7 9 7
7 7 11 11 14 13 13 11 12 10 24 20 18 19 17 17 15 15 16 14 15 15 14 13 14 17 17 15 16 15 14 14 16 15 14 14 13 13 14 13 11 9 12 7 8 5 6 15 16
15 13 14 14 14 13 20 14 14 16 20 33 27 26 25 21 20 19 21 22 21 22 24 25 23 23 21 20 21 21 21 21 19 20 20 15 14 18 22 19 17 17 19 12 12 14 10 14 17
17 19 16 18 21 24 23 22 21 18 11 18 31 29 27 27 26 27 24 25 24 23 23 22 25 27 26 26 26 24 24 24 23 24 21 19 21 20 20 19 19 18 22 21 16 16 17 19 19
22 22 18 21 23 26 28 25 23 25 21 32 34 34 29 32 34 31 29 26 28 28 25 24 25 28 30 30 29 26 27 27 26 27 29 28 27 22 24 26 23 24 27 19 18 22 21 19 22
28 25 23 25 24 25 24 24 25 28 26 24 36 30 31 40 41 46 40 36 32 35 34 35 37 36 34 32 33 33 31 33 34 32 39 39 38 28 26 26 27 22 34 32 25 23 24 21 25
28 25 26 27 28 29 29 28 28 23 29 38 46 44 47 45 41 24 54 46 42 40 42 45 48 49 44 43 40 39 36 34 35 36 40 42 43 34 27 29 31 34 35 36 35 31 27 25 25
30 29 30 31 32 33 32 34 32 37 45 49 48 47 46 44 39 34 36 40 40 42 38 40 46 53 52 50 45 40 41 40 39 39 41 40 34 38 38 36 37 43 40 39 39 39 36 30 28
31 31 32 29 31 36 37 37 39 42 45 44 42 39 38 37 38 36 34 33 23 43 43 44 50 46 45 47 47 49 47 48 46 43 45 50 41 45 50 51 50 49 45 41 41 41 32 31 28
33 34 35 37 38 39 40 41 40 39 39 37 37 37 36 35 36 38 34 33 34 44 45 32 42 48 48 45 40 50 52 49 41 44 45 46 49 45 40 44 46 41 40 43 42 41 39 36 35
36 37 38 38 39 40 39 37 33 34 35 35 32 33 36 39 37 39 38 32 35 35 33 49 44 41 46 47 38 40 65 41 51 43 43 49 55 49 46 46 49 52 47 45 48 44 45 44 43
39 38 39 38 35 33 34 33 31 33 30 31 32 35 37 36 43 40 42 37 34 48 45 50 45 44 43 46 47 53 61 55 45 46 54 51 54 60 52 51 52 50 49 49 56 52 51 47 45
39 39 37 34 33 33 33 33 29 31 32 34 35 38 42 43 42 47 47 46 46 44 47 45 48 47 48 48 50 53 60 59 60 56 65 70 53 54 58 62 58 60 57 50 51 54 51 47 48
35 33 31 31 32 32 32 33 29 34 37 40 41 43 47 49 47 48 51 52 55 55 54 52 50 52 49 47 51 55 64 71 67 59 54 55 65 61 62 67 64 61 64 64 60 61 54 52 55
33 31 31 31 32 31 33 35 34 35 37 40 44 43 43 48 50 50 53 54 56 60 61 61 60 57 54 56 47 53 62 66 75 77 69 69 63 62 63 64 66 68 64 63 61 65 65 61 62

GFSSGP_250_spd_345.txt.gz
Wind_Speed
11 16 10 26 29 30 33 45 51 49 41 33 18 11 13 9 14 4 9 10 10 10 12 14 15 14 15 16 12 14 13 15 17 20 17 15 11 11 14 16 15 19 21 20 12 15 19 21 26
14 23 26 31 32 32 40 45 50 50 43 41 25 13 8 8 8 13 9 12 17 21 21 20 18 17 18 16 16 18 14 18 23 21 17 13 11 13 13 14 19 20 21 15 14 13 18 20 27
23 29 27 32 28 30 37 42 48 49 45 42 39 29 14 9 18 16 14 18 24 27 25 23 23 22 27 20 20 17 17 23 24 21 15 11 12 16 14 16 20 22 23 13 10 16 18 19 28
3 16 17 29 29 34 35 37 44 49 46 43 41 34 29 24 20 18 17 22 26 27 28 27 26 24 21 22 20 19 24 25 24 19 15 12 10 10 12 17 18 20 24 18 14 19 19 21 24
15 7 26 29 30 32 35 36 37 46 47 45 41 38 34 33 29 28 26 27 28 29 28 25 25 25 23 22 22 25 24 26 22 17 11 9 8 8 10 14 17 17 20 23 18 19 20 22 26
16 19 25 24 29 29 32 32 34 41 45 45 45 42 38 35 36 35 31 29 29 27 27 27 26 26 25 24 24 24 26 23 19 13 10 8 8 8 10 13 17 16 19 21 17 17 21 20 20
15 18 19 18 24 26 31 32 36 37 40 42 43 42 40 42 40 36 35 33 31 30 29 28 27 26 24 24 26 25 21 18 14 13 12 12 11 11 10 11 14 15 18 22 17 18 21 22 20
6 8 18 12 20 25 30 31 33 35 35 37 38 40 38 38 39 37 35 33 32 30 29 26 25 25 24 24 24 19 18 13 15 15 14 12 12 15 14 13 14 13 15 17 19 21 25 29 26
12 6 12 7 17 22 26 29 31 32 32 33 32 35 35 34 32 32 33 32 32 31 29 30 28 27 25 23 20 17 16 15 16 13 12 10 12 14 14 13 14 13 12 16 17 22 24 23 20
8 9 9 11 11 16 20 24 27 30 29 28 29 28 30 28 29 29 31 32 31 31 28 26 27 25 24 20 16 15 15 14 14 11 8 5 7 9 10 12 11 12 11 14 20 21 19 13 18
6 9 8 11 7 12 14 17 20 23 25 25 25 24 22 23 21 21 19 22 24 23 25 22 19 20 17 16 14 12 11 10 7 6 4 4 5 5 7 8 9 10 10 11 14 19 11 5 12
6 8 9 11 12 12 12 14 18 15 18 23 25 22 18 17 16 14 15 15 12 14 13 14 13 13 12 11 10 8 7 8 8 6 5 5 5 3 4 6 7 8 8 6 8 9 19 18 12
4 7 10 15 15 14 18 17 18 14 11 16 19 21 19 15 13 10 7 6 6 7 6 5 4 7 6 6 7 8 8 9 7 6 5 5 3 2 1 1 2 2 4 5 6 4 7 7 8
10 8 14 14 10 14 13 13 14 14 10 12 15 16 17 15 13 11 9 8 5 3 4 6 9 6 2 5 3 6 7 6 10 2 3 1 2 0 2 3 2 3 2 4 2 0 2 5 2
8 7 14 13 12 15 14 8 13 13 17 16 13 14 13 14 16 15 11 8 9 8 7 7 6 7 7 8 7 3 1 2 6 8 6 6 7 5 3 3 3 4 6 8 5 4 9 8 5
3 5 11 12 11 14 14 14 10 16 11 19 21 11 12 12 11 12 12 12 13 13 13 10 12 10 9 9 11 13 12 10 7 8 8 12 13 13 16 13 12 6 4 10 9 9 8 18 13
6 4 10 10 7 6 10 16 14 19 13 9 26 9 14 17 15 16 16 15 17 18 18 19 18 19 17 15 16 15 18 18 18 14 14 14 16 16 16 18 17 17 16 12 13 13 13 16 21
18 16 20 18 17 19 16 18 20 16 17 20 15 20 17 20 21 19 21 22 26 24 26 27 26 24 22 21 20 19 20 22 24 24 22 21 19 17 17 14 13 19 22 21 19 19 15 22 25
7 14 18 21 20 22 22 22 20 15 18 14 25 10 14 20 25 24 23 29 29 31 30 30 30 29 27 25 25 24 21 24 23 24 28 26 25 23 23 18 19 20 21 21 19 17 25 23 28
22 25 26 25 21 25 22 19 20 20 17 19 26 31 24 29 33 26 43 42 41 28 31 33 35 34 31 28 27 29 30 27 26 25 26 27 28 30 30 27 25 27 27 22 14 19 17 25 31
25 30 27 28 26 26 22 20 13 16 18 29 34 35 29 34 46 49 49 43 33 30 30 35 37 40 40 39 39 38 38 38 39 37 34 34 35 34 33 35 38 37 32 27 27 25 27 26 27
33 29 28 31 26 25 28 28 26 26 27 28 28 33 39 43 48 53 46 42 34 41 38 39 38 41 45 49 50 52 51 47 47 43 43 40 42 39 38 29 35 46 34 31 33 29 33 32 34
27 27 34 32 30 29 21 26 27 32 34 35 38 43 47 50 44 36 35 35 31 34 39 37 35 38 37 39 45 48 45 45 48 50 51 46 39 40 39 40 36 43 45 45 40 45 42 33 35
34 36 31 31 32 34 30 31 33 36 34 34 36 38 38 39 34 30 31 30 29 34 35 39 36 50 38 41 38 37 41 46 46 44 46 46 46 43 42 41 43 37 45 49 45 45 38 32 34
31 29 35 37 36 38 36 31 35 37 34 31 29 33 37 35 35 32 31 28 27 34 35 32 33 30 29 35 43 47 45 48 47 41 38 41 42 46 45 50 49 47 45 49 46 47 41 40 40
36 41 44 44 43 42 39 38 35 32 30 30 29 30 31 35 39 28 30 26 26 31 36 28 45 43 42 42 43 48 48 47 43 39 48 43 37 43 48 52 56 58 55 49 57 57 50 46 44
39 41 44 44 43 46 41 39 33 31 30 30 29 32 31 32 35 40 33 33 33 34 39 44 47 46 46 43 40 42 46 51 49 53 55 48 54 43 50 50 57 60 60 55 55 48 51 51 50
41 42 43 43 41 41 43 41 30 31 31 29 30 32 35 37 37 39 41 42 39 37 39 41 45 48 48 47 47 48 52 55 58 58 60 69 66 64 65 67 65 63 64 56 64 64 59 56 57
43 43 43 41 39 38 40 41 30 32 32 33 34 37 40 41 43 44 45 45 47 43 41 42 45 50 51 51 53 52 53 54 60 66 70 72 71 75 71 68 69 66 65 67 66 65 67 65 65
43 42 41 39 37 38 39 44 36 31 32 34 36 36 36 38 41 43 44 46 49 52 52 50 52 57 59 58 58 51 49 52 63 67 71 74 72 75 77 80 77 76 74 72 68 69 70 69 66

GFSSGP_250_spd_348.txt.gz
Wind_Speed
20 25 25 27 28 31 44 48 47 42 41 34 23 22 17 20 14 19 17 14 10 10 13 16 18 17 16 12 12 8 13 17 19 17 15 12 9 7 9 15 18 17 12 8 13 14 18 21 23
22 28 29 26 30 36 44 49 48 47 38 38 31 30 26 24 20 22 18 18 20 21 21 21 20 18 18 16 13 15 18 22 20 18 14 11 7 7 12 17 20 21 8 8 11 14 21 22 19
17 26 29 32 36 37 40 47 51 51 44 41 39 37 29 29 27 25 24 26 26 26 24 25 23 21 21 21 20 19 24 22 21 17 13 8 10 8 16 18 19 23 11 12 13 15 16 22 22
11 26 31 32 36 36 37 43 51 51 50 42 44 43 40 36 32 29 32 32 28 25 25 28 29 24 23 23 20 25 23 22 20 15 10 5 6 11 15 17 16 20 13 13 14 15 12 14 21
8 24 28 31 35 37 41 42 48 51 50 46 45 46 44 42 35 34 35 32 30 31 31 31 26 23 23 22 23 27 22 20 18 12 6 3 8 11 13 17 16 17 10 12 12 13 15 16 16
13 16 26 27 33 39 38 42 41 47 49 48 45 42 43 41 39 37 36 34 34 34 32 29 26 24 25 25 27 26 20 16 12 9 6 8 11 12 13 14 14 17 18 7 11 12 14 12 13
15 20 23 26 31 35 38 39 42 43 43 44 42 44 42 42 40 37 37 36 34 33 31 28 26 26 25 24 25 22 17 12 10 8 10 11 12 12 12 14 13 16 19 5 12 12 15 22 24
8 16 20 22 24 32 34 38 37 39 38 38 39 40 44 42 42 40 37 36 33 32 30 27 25 23 24 23 19 16 12 11 9 10 8 8 11 12 13 13 12 15 15 9 17 19 22 20 17
9 13 15 16 19 24 30 31 33 35 32 33 31 34 39 40 38 37 35 35 35 34 32 30 25 22 20 16 14 12 10 10 8 8 6 6 7 9 10 10 12 13 12 10 15 15 11 15 16
11 11 12 15 15 17 22 24 28 29 32 30 26 25 26 28 31 31 30 30 30 29 29 26 26 22 18 15 14 12 9 8 7 6 3 2 4 5 6 9 10 9 8 13 10 8 4 12 17
9 11 15 18 16 16 20 17 22 18 24 27 25 19 19 18 21 21 22 22 21 23 21 21 17 15 14 11 8 7 7 7 7 4 4 5 4 3 0 3 3 4 3 5 12 10 7 8 8
4 8 12 14 16 19 18 16 21 13 15 19 22 20 14 13 12 12 14 13 13 11 13 14 12 10 8 6 5 4 4 2 1 2 3 4 5 4 3 3 3 3 3 3 3 13 6 4 3
7 10 15 12 15 15 14 15 13 12 11 14 14 15 14 11 11 9 8 7 6 5 6 6 7 7 4 3 1 2 1 2 2 4 5 7 7 6 8 7 5 2 3 5 2 4 9 7 2
2 3 12 11 13 15 16 14 11 10 11 16 13 9 11 12 11 7 6 6 4 2 1 2 1 1 1 5 9 3 1 2 5 6 9 11 12 9 7 9 6 5 7 8 7 2 5 10 7
11 6 8 15 13 10 11 11 10 11 11 9 7 16 11 10 13 12 9 8 6 6 7 7 2 3 5 6 9 9 10 8 8 9 9 11 12 15 12 12 10 11 11 10 16 14 11 9 11
3 2 6 10 9 9 7 10 15 11 11 7 8 11 14 3 9 13 15 14 13 11 13 14 12 11 12 13 13 14 14 15 15 16 16 16 16 15 14 14 17 20 18 11 12 17 17 14 15
5 6 11 9 14 12 7 12 13 8 13 14 13 9 16 13 9 11 15 13 13 16 21 23 24 21 22 22 21 20 19 21 22 22 23 24 22 21 20 19 13 17 16 15 20 18 18 18 18
13 13 13 12 19 22 17 14 22 22 17 18 10 8 9 11 14 15 23 16 18 26 25 27 26 27 28 29 30 29 26 27 27 26 29 31 31 27 26 24 22 20 21 18 21 23 22 25 23
13 18 17 22 20 21 20 21 23 23 21 18 14 8 13 13 15 24 25 28 36 38 35 29 25 29 28 32 32 35 35 33 31 32 33 33 33 33 32 31 27 24 25 23 26 25 21 21 27
23 25 22 25 25 25 22 20 21 20 20 18 22 25 27 33 41 34 39 40 42 43 37 28 26 31 28 31 36 38 36 34 34 35 34 34 34 34 32 36 35 32 33 34 34 29 26 26 29
22 23 26 34 32 26 28 25 27 23 21 24 29 32 32 32 35 39 44 47 51 45 28 30 33 32 30 33 39 42 43 42 40 39 41 41 41 41 40 38 37 37 38 42 41 40 35 35 33
25 26 30 35 27 30 29 27 26 24 24 24 26 32 36 39 40 45 48 53 50 35 27 31 32 32 29 33 33 36 43 47 52 53 52 53 51 49 49 48 44 43 43 42 39 44 46 42 42
30 31 31 29 29 29 26 28 28 30 30 29 31 32 35 38 41 40 35 37 34 33 35 33 33 28 29 30 29 31 39 45 47 49 51 49 49 53 52 50 38 51 43 45 45 38 44 46 47
31 34 35 30 27 33 37 39 37 35 34 37 37 35 33 32 31 29 31 32 32 33 36 38 32 29 38 35 29 33 38 43 41 43 46 48 47 48 52 53 52 48 40 49 47 45 42 44 48
32 30 33 35 40 36 39 40 43 40 38 36 37 38 33 31 27 26 30 28 28 31 31 32 34 30 19 22 35 39 45 47 47 49 51 49 41 45 52 46 54 53 49 47 53 51 50 45 41
40 39 39 41 43 41 37 37 41 37 34 32 34 36 35 33 34 34 31 30 31 34 35 36 36 37 35 39 40 38 42 42 39 46 47 47 48 50 52 48 49 56 61 55 58 56 61 54 50
43 39 43 45 40 40 37 36 40 36 32 32 35 33 34 34 33 34 34 33 32 31 32 34 35 39 40 42 40 41 42 41 45 52 53 55 54 52 55 48 50 56 58 58 61 63 63 67 62
42 46 46 47 46 44 40 38 34 30 31 33 37 37 36 37 38 36 32 31 34 36 39 40 40 41 42 44 46 47 48 45 49 52 61 61 60 61 58 60 60 61 64 63 62 63 60 62 64
44 45 49 50 51 50 47 42 33 29 31 35 37 39 39 38 38 37 37 37 37 36 37 37 40 42 46 48 50 53 52 48 48 55 67 68 63 65 65 64 68 70 66 67 65 64 67 70 68
47 51 51 52 52 52 51 51 35 30 34 36 35 36 38 38 39 39 38 38 38 38 39 40 43 47 51 53 56 58 57 56 48 52 39 55 59 60 66 65 66 71 73 82 81 79 78 72 71

GFSSGP_250_spd_354.txt.gz
Wind_Speed
23 26 29 34 42 43 40 38 34 32 30 29 29 28 24 21 17 14 13 15 15 16 17 18 16 13 12 11 11 6 11 17 19 14 11 14 15 16 14 17 17 17 15 15 16 20 23 22 23
23 29 33 36 42 42 45 41 39 39 37 38 38 34 28 20 18 16 15 17 16 14 13 14 20 23 21 13 7 12 17 19 17 14 14 12 15 16 16 18 16 15 15 16 16 16 18 19 26
26 28 33 37 41 42 44 45 45 43 42 42 41 36 32 30 28 24 21 20 19 19 15 20 25 23 15 12 14 17 19 16 14 12 12 14 14 14 16 17 15 13 13 12 12 12 15 22 25
25 30 32 35 40 41 42 44 43 45 48 49 46 43 40 38 35 33 31 30 29 26 25 27 23 18 18 17 20 19 16 14 11 10 10 12 14 16 16 19 17 15 13 10 5 9 16 18 32
20 25 29 34 35 38 39 41 43 44 46 48 47 45 44 41 39 38 35 33 32 30 27 24 22 21 18 22 18 14 12 11 11 11 13 16 18 17 16 20 16 14 13 13 13 17 15 17 22
15 19 25 30 35 32 35 37 38 42 40 43 44 44 43 40 39 37 35 33 30 29 29 26 23 21 22 19 16 12 10 10 11 13 16 18 17 15 16 18 15 12 17 23 16 10 11 14 13
11 15 20 26 28 30 31 31 35 39 40 38 40 39 40 40 38 37 34 30 27 26 26 25 24 24 20 17 13 12 11 9 10 14 16 16 15 14 17 16 15 9 11 12 12 14 12 14 12
14 19 17 20 25 24 28 30 28 31 33 35 34 33 34 34 35 35 33 30 28 26 25 23 21 18 14 13 12 12 12 14 11 9 11 14 14 14 16 14 16 8 8 16 13 15 15 16 15
16 19 22 26 24 20 22 26 29 29 27 27 28 31 28 27 28 29 29 28 26 24 22 23 20 18 17 13 11 8 7 8 10 8 10 11 10 10 11 13 13 13 10 16 14 6 8 12 11
17 18 19 24 24 22 21 18 18 24 26 23 21 22 23 23 21 21 22 23 22 21 19 15 14 13 11 9 8 9 9 10 9 9 11 12 12 7 6 7 8 9 11 10 4 7 9 12 10
14 21 19 23 22 22 18 18 16 22 26 20 22 20 17 16 16 16 16 14 16 15 15 14 13 12 11 8 7 7 10 11 10 10 12 14 15 11 6 7 9 9 6 8 7 10 9 7 9
16 17 14 20 18 22 21 20 20 19 17 17 17 18 16 14 12 10 10 11 10 9 9 9 8 7 5 5 5 4 6 8 9 6 6 8 10 14 10 8 8 9 6 4 5 8 8 3 6
8 9 13 19 18 23 20 17 21 20 16 14 15 18 14 12 12 11 8 7 7 7 8 9 10 11 12 8 3 5 6 6 6 7 8 5 6 7 9 8 9 12 9 6 8 9 8 8 8
4 8 14 14 14 18 15 17 19 22 19 19 16 12 17 7 11 9 10 10 11 9 8 10 11 14 14 15 14 13 11 11 12 12 10 10 9 7 7 7 6 6 7 8 8 9 8 7 8
3 8 12 11 14 16 16 9 24 19 16 21 24 19 11 9 6 8 11 14 10 9 11 12 13 20 22 22 22 21 21 20 19 18 19 20 19 16 12 9 11 11 10 10 11 13 14 15 9
8 9 12 5 16 20 20 18 19 20 22 22 17 16 7 7 8 11 10 14 18 15 17 17 16 19 20 22 24 25 25 24 25 26 25 25 26 25 23 20 17 15 13 12 13 13 15 14 13
6 12 9 6 16 18 20 26 23 23 24 23 21 16 14 12 11 13 16 22 23 22 22 26 29 30 31 26 27 27 30 31 31 30 29 27 26 27 28 29 28 25 22 20 19 18 16 16 17
7 13 10 15 18 18 20 27 26 23 23 22 23 20 16 13 15 19 23 28 31 30 32 36 33 34 36 33 31 31 34 33 32 33 33 32 31 32 32 33 31 29 29 26 25 24 20 20 19
11 12 17 16 17 20 22 28 21 23 23 23 23 22 20 22 25 29 32 29 32 38 41 38 37 35 34 33 34 36 34 31 33 34 34 33 34 36 37 37 35 33 32 33 30 30 29 23 24
17 17 17 21 24 28 27 27 24 23 20 25 29 29 29 28 30 33 35 38 38 37 36 36 32 32 33 34 31 31 31 31 33 38 39 38 39 41 41 38 38 38 36 34 33 33 33 33 32
21 24 26 27 29 30 29 28 30 28 26 31 34 32 31 30 31 32 34 35 33 31 30 31 30 31 31 30 31 33 33 33 31 33 36 37 37 39 43 43 44 43 41 40 37 40 41 40 37
25 24 26 28 32 33 34 34 32 31 33 35 34 33 34 33 32 33 35 34 31 29 30 31 32 32 30 31 33 34 35 35 36 34 35 38 40 34 31 32 34 38 41 44 45 47 47 43 43
28 31 34 39 39 38 39 35 38 40 35 36 35 36 37 36 35 35 36 35 33 33 32 32 33 33 32 32 31 31 33 35 33 38 42 44 42 44 40 39 38 38 38 41 42 42 43 45 46
33 36 38 38 39 38 38 39 38 38 43 40 37 39 40 40 41 40 39 36 36 36 34 33 35 35 34 34 32 32 32 33 33 35 38 45 41 41 43 45 43 38 39 38 34 34 35 41 43
35 35 34 37 37 37 36 36 37 42 43 40 39 40 38 36 36 36 37 39 39 39 39 38 38 37 36 34 35 35 34 33 34 36 39 42 48 47 44 41 38 37 36 32 30 32 41 48 47
34 32 30 32 30 33 41 42 40 42 44 44 42 41 41 39 37 36 37 36 35 35 37 40 38 36 34 35 36 36 37 38 38 41 42 44 47 47 50 43 42 35 36 34 35 34 39 51 49
40 40 37 38 39 34 38 43 42 44 46 48 48 47 46 42 39 37 38 39 38 38 40 39 37 37 38 36 37 39 40 42 42 45 46 50 49 49 49 49 46 39 41 42 41 38 42 34 42
43 42 43 42 42 38 43 42 43 47 48 48 49 48 46 43 40 39 40 41 41 40 39 40 40 41 41 41 42 42 43 46 45 46 48 49 53 51 52 51 48 49 56 50 53 48 52 57 60
46 47 50 48 45 45 49 48 47 47 45 45 47 49 49 47 44 43 42 43 44 45 45 44 43 45 46 47 47 48 48 50 48 49 50 51 54 55 53 56 57 56 60 62 63 59 59 65 67
49 50 51 52 51 49 49 52 48 45 45 46 49 49 48 47 46 43 43 46 48 49 49 48 48 49 49 50 51 49 48 51 50 49 47 51 53 55 56 63 61 56 55 53 59 62 60 61 59